| time (UTC) | temp F | wind direction | speed knots | gust knots | rain 1hr in | rain 24hr in | rain mn in | humidity % | barometer mb |
| 20260505004550 | 70 | 195 | 0.9 | 7.8 | 0.00 | 0.00 | 0.00 | 59 | 1008.0 |
| 20260505003046 | 71 | 162 | 1.7 | 4.3 | 0.00 | 0.00 | 0.00 | 58 | 1008.0 |
| 20260505001549 | 72 | 321 | 0.9 | 8.7 | 0.00 | 0.00 | 0.00 | 56 | 1008.1 |
| 20260505000058 | 73 | 219 | 1.7 | 10.4 | 0.00 | 0.00 | 0.00 | 55 | 1008.2 |
| 20260504234551 | 73 | 209 | 2.6 | 11.3 | 0.00 | 0.00 | 0.00 | 53 | 1008.2 |
| 20260504233054 | 74 | 148 | 2.6 | 7.0 | 0.00 | 0.00 | 0.00 | 53 | 1008.3 |
| 20260504231550 | 74 | 87 | 0.9 | 9.6 | 0.00 | 0.00 | 0.00 | 54 | 1008.4 |
| 20260504230056 | 74 | 239 | 2.6 | 7.0 | 0.00 | 0.00 | 0.00 | 53 | 1008.5 |
| 20260504224546 | 75 | 223 | 1.7 | 10.4 | 0.00 | 0.00 | 0.00 | 54 | 1008.7 |
| 20260504223055 | 75 | 224 | 0.9 | 8.7 | 0.00 | 0.00 | 0.00 | 56 | 1008.8 |
| 20260504221550 | 76 | 224 | 2.6 | 7.0 | 0.00 | 0.00 | 0.00 | 53 | 1008.7 |
| 20260504220053 | 75 | 231 | 1.7 | 7.0 | 0.00 | 0.00 | 0.00 | 55 | 1009.0 |
| 20260504214606 | 75 | 229 | 0.9 | 4.3 | 0.00 | 0.00 | 0.00 | 55 | 1009.1 |
| 20260504213059 | 76 | 205 | 1.7 | 6.1 | 0.00 | 0.00 | 0.00 | 55 | 1009.2 |
| 20260504211552 | 74 | 232 | 3.5 | 6.1 | 0.00 | 0.00 | 0.00 | 55 | 1009.4 |
| 20260504210051 | 74 | 305 | 0.9 | 8.7 | 0.00 | 0.00 | 0.00 | 55 | 1009.3 |
| 20260504204551 | 74 | 297 | 3.5 | 9.6 | 0.00 | 0.00 | 0.00 | 55 | 1009.5 |
| 20260504203053 | 75 | 188 | 2.6 | 7.8 | 0.00 | 0.00 | 0.00 | 60 | 1009.6 |
| 20260504201603 | 74 | 245 | 2.6 | 7.8 | 0.00 | 0.00 | 0.00 | 61 | 1010.1 |
| 20260504200047 | 72 | 210 | 1.7 | 9.6 | 0.00 | 0.00 | 0.00 | 62 | 1010.4 |
| 20260504194552 | 72 | 253 | 2.6 | 8.7 | 0.00 | 0.00 | 0.00 | 61 | 1010.7 |
| 20260504193050 | 71 | 229 | 1.7 | 8.7 | 0.00 | 0.00 | 0.00 | 64 | 1010.7 |
| 20260504191559 | 71 | 282 | 0.9 | 7.0 | 0.00 | 0.00 | 0.00 | 61 | 1010.6 |
| 20260504190115 | 70 | 276 | 4.3 | 9.6 | 0.00 | 0.00 | 0.00 | 61 | 1010.6 |
| 20260504184620 | 68 | 246 | 2.6 | 7.8 | 0.00 | 0.00 | 0.00 | 63 | 1010.7 |
| 20260504183052 | 67 | 221 | 1.7 | 8.7 | 0.00 | 0.00 | 0.00 | 65 | 1010.7 |
| 20260504181551 | 67 | 211 | 2.6 | 7.8 | 0.00 | 0.00 | 0.00 | 66 | 1010.4 |
| 20260504180053 | 67 | 221 | 2.6 | 10.4 | 0.00 | 0.00 | 0.00 | 67 | 1010.4 |
| 20260504174554 | 68 | 212 | 2.6 | 11.3 | 0.00 | 0.00 | 0.00 | 65 | 1010.9 |
| 20260504173054 | 70 | 175 | 0.9 | 6.1 | 0.00 | 0.00 | 0.00 | 64 | 1010.9 |
| 20260504171554 | 69 | 243 | 2.6 | 8.7 | 0.00 | 0.00 | 0.00 | 63 | 1011.3 |
| 20260504140106 | 57 | 222 | 2.6 | 9.6 | 0.00 | 0.00 | 0.00 | 75 | 1012.4 |
| 20260504120108 | 53 | 184 | 1.7 | 8.7 | 0.00 | 0.00 | 0.00 | 72 | 1012.6 |
| 20260504081550 | 51 | 171 | 2.6 | 6.1 | 0.00 | 0.00 | 0.00 | 68 | 1013.2 |
| 20260504044551 | 51 | 162 | 0.9 | 3.5 | 0.00 | 0.00 | 0.00 | 70 | 1014.9 |
| 20260504043051 | 51 | 150 | 0.9 | 3.5 | 0.00 | 0.00 | 0.00 | 70 | 1014.8 |
| 20260504041549 | 51 | 136 | 0.9 | 3.5 | 0.00 | 0.00 | 0.00 | 71 | 1015.1 |
| 20260504040049 | 51 | 158 | 0.0 | 2.6 | 0.00 | 0.00 | 0.00 | 71 | 1015.2 |
| 20260504034546 | 51 | 0 | 0.0 | 0.0 | 0.00 | 0.00 | 0.00 | 71 | 1015.3 |
| 20260504033059 | 51 | 0 | 0.0 | 2.6 | 0.00 | 0.00 | 0.00 | 71 | 1015.5 |
| 20260504031558 | 51 | 131 | 0.9 | 1.7 | 0.00 | 0.00 | 0.00 | 71 | 1015.2 |
| 20260504030051 | 52 | 143 | 0.0 | 1.7 | 0.00 | 0.00 | 0.00 | 69 | 1015.6 |
| 20260504024556 | 53 | 163 | 0.0 | 2.6 | 0.00 | 0.00 | 0.00 | 66 | 1015.7 |
| 20260504023053 | 55 | 194 | 0.9 | 7.8 | 0.00 | 0.00 | 0.00 | 58 | 1015.7 |
| 20260504021551 | 55 | 150 | 0.9 | 2.6 | 0.00 | 0.00 | 0.00 | 56 | 1015.3 |
| 20260504020051 | 55 | 133 | 0.9 | 3.5 | 0.00 | 0.00 | 0.00 | 54 | 1015.3 |
| 20260504014542 | 55 | 140 | 0.9 | 2.6 | 0.00 | 0.00 | 0.00 | 53 | 1015.3 |
| 20260504013049 | 55 | 134 | 0.0 | 2.6 | 0.00 | 0.00 | 0.00 | 54 | 1015.2 |
| 20260504011549 | 55 | 161 | 0.9 | 3.5 | 0.00 | 0.00 | 0.00 | 52 | 1015.2 |